Wind_Speed
4 4 8 11 4 3 5 3 4 3 4 4 6 8 9 21 18 21 24 17 13 14 15 14 13 14 13 15 17 18 19 20 23 23 20 19 20 20 20 20 19 19 18 18
4 6 4 4 3 4 1 3 4 1 1 5 3 10 10 14 14 25 28 28 22 18 18 16 15 15 15 15 16 16 17 18 15 12 11 12 13 14 13 13 12 13 17 18
6 4 9 6 4 5 2 3 2 0 3 2 5 7 6 6 16 23 28 30 27 27 22 19 18 16 15 14 13 13 11 10 10 9 8 6 6 7 9 8 11 13 15 16
3 3 6 5 4 6 4 6 4 3 3 3 2 5 6 4 7 5 9 19 21 24 24 20 19 16 13 11 9 8 7 7 6 4 4 4 6 8 10 11 13 13 13 15
7 5 4 3 5 7 5 5 5 2 1 2 1 1 7 4 6 6 2 9 13 18 21 21 16 12 10 7 5 4 4 5 5 4 3 6 9 11 12 14 15 15 14 15
5 0 6 9 4 6 6 6 6 4 2 3 7 7 5 4 4 1 3 9 15 18 19 17 13 10 6 4 2 2 2 3 4 4 3 5 9 12 13 13 14 15 14 12
2 2 1 3 6 2 4 6 1 2 2 6 1 2 7 7 5 5 11 18 19 19 17 14 11 7 5 4 3 0 2 3 4 4 4 5 7 10 13 14 14 13 11 10
10 4 8 6 7 7 5 6 5 7 4 4 3 6 5 2 5 6 13 19 18 16 13 11 6 5 5 4 2 2 3 3 5 6 6 7 8 10 10 11 11 11 11 10
5 4 2 2 3 8 5 6 5 5 2 2 3 6 9 2 6 10 13 18 15 11 9 8 4 4 4 4 2 0 3 4 6 8 9 10 10 10 11 12 12 12 11 11
6 3 1 1 4 4 5 7 2 2 1 4 3 5 4 2 3 4 6 14 12 9 8 7 5 4 5 5 5 6 7 8 10 11 12 12 12 13 13 13 12 12 11 10
4 3 0 5 6 10 4 4 3 5 4 4 1 5 5 4 2 8 11 12 9 5 4 6 5 4 7 8 9 9 11 12 13 14 14 15 15 15 14 14 13 12 11 11
4 3 5 11 2 3 4 5 5 4 4 3 2 5 3 5 5 9 11 8 4 2 2 4 7 9 11 12 14 17 16 16 16 16 16 16 16 16 15 15 14 13 12 12
7 3 4 1 3 4 4 4 6 4 3 6 5 4 3 5 8 11 12 9 0 7 10 12 13 15 17 18 20 20 20 20 19 19 18 17 17 17 16 15 15 14 13 11
10 2 4 5 3 5 7 9 6 11 5 5 5 3 5 4 5 8 10 5 12 9 9 12 15 18 20 23 25 24 25 23 22 20 19 18 18 17 17 16 15 14 12 11
6 6 4 2 2 2 4 10 15 14 11 8 7 9 8 7 7 13 12 12 14 13 13 14 17 17 17 17 19 24 26 25 23 21 20 18 18 17 17 16 15 14 12 11
3 3 4 3 2 0 4 8 9 10 7 7 4 10 6 14 14 19 22 16 15 16 16 17 17 18 16 16 17 19 22 26 25 23 21 19 17 16 16 15 14 13 11 11
6 5 3 2 4 4 7 7 7 5 5 11 14 16 7 9 15 17 17 14 15 14 15 14 12 12 10 13 17 21 20 21 24 24 21 19 17 16 16 15 14 13 11 10
9 6 2 2 2 4 5 2 5 9 7 11 6 5 13 19 20 16 17 15 13 11 8 12 12 14 12 12 14 16 17 18 21 22 21 19 18 17 16 15 14 13 12 10
4 5 3 4 4 5 5 5 8 8 13 15 13 16 17 18 12 21 18 13 9 9 10 13 15 16 17 17 18 18 18 18 19 21 20 19 18 17 17 16 14 13 12 14
5 4 4 3 5 8 6 6 11 8 8 13 18 14 16 11 3 8 11 9 10 11 12 17 22 22 24 21 21 20 20 19 20 19 18 17 17 16 15 15 15 15 13 11
3 3 8 3 3 7 8 6 14 6 7 14 21 23 17 7 17 8 8 13 13 15 19 21 22 22 22 22 21 20 19 19 17 17 17 16 16 15 16 16 16 14 13 10
8 7 4 3 2 13 14 6 11 9 7 11 13 20 23 22 17 17 16 15 16 22 23 22 22 22 22 22 21 20 18 17 16 16 16 17 16 16 16 16 17 15 12 11
3 7 6 10 8 3 28 18 32 20 17 22 22 17 15 19 21 19 18 22 28 28 24 22 23 23 23 23 20 19 17 17 18 18 17 16 16 16 16 17 17 15 14 13
4 4 4 5 9 11 24 28 26 31 35 33 30 22 20 23 22 26 31 33 32 27 21 22 24 24 25 24 22 20 20 19 19 18 18 17 18 18 19 19 16 15 14 12
6 11 5 6 8 4 15 30 35 32 29 29 25 23 25 26 36 34 30 31 29 23 25 25 26 27 26 25 23 22 21 20 20 19 19 20 21 20 20 17 15 14 12 11
11 7 7 7 19 16 22 25 25 31 31 30 30 32 34 33 35 36 35 34 28 29 27 27 29 29 27 26 25 23 22 22 21 22 23 23 23 22 20 18 17 16 13 11
Wind_Direction
157 126 193 199 140 85 140 155 200 219 230 170 234 258 255 262 265 267 270 263 240 215 222 217 221 226 230 235 240 247 256 267 274 275 267 255 251 250 251 254 257 257 255 265
62 225 170 146 150 108 14 171 244 297 71 167 292 274 261 260 251 250 251 251 237 222 219 221 223 227 236 243 252 264 274 277 277 279 268 252 244 247 248 249 252 253 262 270
169 217 170 148 156 170 220 201 220 267 354 32 348 279 273 274 253 255 250 250 247 231 221 222 221 226 235 243 257 272 279 284 290 294 277 256 230 234 222 253 267 262 267 267
232 244 150 142 180 143 213 207 163 142 61 236 22 286 302 285 287 283 265 231 226 220 216 213 214 220 226 242 256 275 296 307 314 306 262 215 231 236 252 262 261 262 268 276
237 174 143 146 180 158 212 140 158 169 119 355 276 288 271 294 278 246 207 191 188 196 198 200 199 206 219 228 248 274 297 310 317 310 268 239 239 249 252 257 261 265 268 269
203 119 158 186 145 161 134 88 57 54 84 299 207 179 262 222 235 37 140 172 175 174 177 183 189 197 209 220 234 253 270 320 316 316 295 256 248 253 257 251 254 259 266 269
152 225 262 152 95 62 111 107 36 342 238 232 17 198 262 266 272 235 179 167 163 166 172 181 181 190 195 198 182 267 336 341 316 316 302 279 263 259 257 257 260 263 262 259
177 219 181 187 178 165 176 154 155 200 198 264 88 233 248 239 6 315 178 170 167 170 175 178 179 190 197 177 134 85 31 320 313 297 283 263 252 251 256 259 257 255 255 258
139 253 128 164 146 141 187 200 160 106 39 48 226 285 300 120 53 84 133 163 168 173 182 191 215 215 186 182 175 237 265 285 286 284 280 276 274 266 256 251 252 253 256 260
217 110 289 123 108 63 148 149 99 28 173 248 276 280 245 315 153 102 140 160 173 185 196 219 241 222 204 211 233 252 263 279 284 283 279 274 268 266 265 265 262 262 264 266
163 103 117 125 213 174 147 178 175 130 154 186 244 265 226 302 268 168 174 173 177 192 223 251 270 265 244 247 257 265 266 274 279 273 272 271 271 270 266 265 265 265 265 265
183 133 181 198 355 300 203 195 154 151 185 232 165 270 332 347 74 137 159 159 167 208 263 274 270 265 268 270 270 271 267 271 270 270 270 270 272 271 269 268 265 264 263 265
168 179 120 81 313 339 224 182 178 127 109 194 152 260 344 120 103 128 136 137 224 298 290 280 277 276 274 272 275 269 269 270 271 273 274 275 274 272 269 266 263 262 262 262
138 129 169 199 212 144 190 195 187 196 204 181 204 177 257 228 153 156 165 237 304 307 296 291 294 297 290 281 272 272 268 267 266 270 273 273 273 271 268 266 263 260 258 256
123 192 199 272 209 193 176 179 200 210 208 205 176 201 225 234 220 201 246 275 295 308 309 315 317 316 315 303 287 274 268 266 268 270 272 271 269 267 264 261 258 255 252 249
166 130 159 221 318 98 224 217 207 219 228 256 240 256 218 243 260 266 269 289 297 306 310 314 309 309 318 312 304 295 278 267 265 266 265 265 265 263 259 254 251 249 244 239
131 124 111 242 353 22 278 210 196 188 187 223 231 242 211 226 238 250 267 273 293 298 302 307 314 312 316 313 305 303 291 270 260 258 259 259 258 255 251 246 243 240 237 233
144 114 82 173 50 256 258 335 198 198 203 210 215 203 212 230 249 268 263 272 278 274 276 303 301 298 305 303 319 299 283 271 257 251 250 252 252 249 245 242 238 234 227 214
125 126 123 156 196 300 284 199 164 172 241 221 217 234 238 248 264 266 257 261 249 274 291 300 299 287 298 293 300 305 281 267 253 247 246 247 247 245 242 236 230 224 222 239
85 69 130 110 152 218 236 214 160 98 261 237 208 224 227 164 216 254 262 244 248 271 279 292 296 286 293 289 286 285 266 252 243 239 241 244 247 245 240 231 222 230 228 222
89 40 188 169 210 281 236 192 143 138 235 234 223 230 212 193 233 242 224 244 256 274 286 288 284 282 286 284 278 271 257 244 238 237 240 242 240 233 229 230 227 213 207 211
157 152 173 95 83 261 172 135 171 198 187 210 215 226 234 242 244 248 253 248 273 290 283 279 280 282 281 278 272 261 247 237 233 234 236 235 231 232 225 217 209 199 199 205
207 184 183 187 211 189 184 200 211 229 221 225 235 239 246 257 254 263 263 280 292 287 272 274 277 276 276 273 266 255 242 232 230 229 229 229 224 215 208 203 200 199 205 213
252 182 189 99 242 212 207 214 226 232 240 249 255 263 269 263 264 281 291 290 286 276 268 278 272 271 269 265 255 244 236 232 229 226 227 217 207 201 197 196 201 208 213 213
193 153 169 261 272 341 252 232 233 235 245 251 256 267 269 277 287 286 289 285 281 269 281 275 270 268 264 257 248 240 235 231 225 222 212 203 197 195 195 198 207 208 208 211
181 183 183 226 222 213 246 250 247 243 249 255 265 271 274 278 281 283 284 283 264 275 279 273 268 261 255 247 240 235 230 225 220 208 200 196 193 192 196 203 201 201 206 218
Height
1523 1527 1528 1525 1529 1530 1536 1539 1539 1535 1531 1535 1537 1535 1529 1525 1526 1526 1527 1530 1531 1532 1532 1533 1535 1537 1538 1539 1540 1540 1540 1540 1539 1538 1536 1534 1535 1536 1536 1537 1537 1538 1538 1539
1527 1528 1524 1527 1529 1532 1535 1536 1538 1532 1531 1534 1533 1533 1525 1521 1518 1517 1518 1521 1525 1527 1528 1530 1532 1534 1536 1537 1538 1538 1537 1536 1534 1534 1531 1530 1532 1533 1533 1534 1535 1535 1536 1536
1525 1521 1520 1525 1530 1534 1537 1539 1537 1537 1534 1534 1536 1531 1523 1513 1510 1510 1511 1513 1517 1521 1524 1527 1529 1532 1534 1535 1535 1535 1534 1534 1531 1530 1530 1529 1531 1532 1533 1533 1534 1534 1534 1534
1523 1518 1520 1525 1529 1532 1540 1534 1535 1538 1541 1548 1539 1549 1524 1512 1509 1506 1504 1506 1509 1514 1519 1524 1527 1530 1532 1533 1533 1532 1531 1531 1530 1529 1528 1529 1531 1531 1531 1532 1533 1533 1531 1531
1521 1519 1521 1525 1525 1528 1533 1532 1536 1539 1543 1544 1544 1548 1527 1516 1508 1504 1504 1505 1508 1512 1516 1521 1526 1529 1530 1531 1531 1530 1530 1530 1529 1529 1528 1528 1529 1530 1529 1530 1531 1531 1529 1528
1518 1517 1519 1520 1521 1524 1528 1534 1540 1546 1550 1563 1543 1543 1530 1515 1506 1504 1505 1506 1508 1512 1517 1521 1525 1527 1528 1529 1529 1530 1529 1529 1530 1529 1528 1528 1527 1528 1527 1527 1528 1528 1527 1526
1518 1518 1517 1517 1523 1525 1528 1537 1568 1569 1556 1557 1539 1544 1527 1507 1502 1502 1503 1506 1510 1514 1518 1521 1524 1525 1527 1528 1529 1529 1529 1529 1530 1528 1527 1527 1526 1526 1526 1525 1525 1525 1525 1525
1517 1526 1516 1513 1515 1520 1528 1531 1552 1556 1557 1549 1544 1537 1515 1504 1502 1502 1503 1507 1511 1515 1518 1521 1523 1524 1526 1528 1529 1529 1528 1530 1529 1528 1526 1525 1524 1524 1525 1524 1523 1523 1523 1523
1521 1517 1510 1510 1511 1513 1526 1529 1532 1546 1573 1558 1541 1526 1508 1503 1504 1506 1508 1510 1513 1516 1518 1521 1523 1524 1525 1527 1528 1528 1529 1528 1527 1526 1526 1525 1525 1524 1523 1522 1521 1521 1521 1521
1503 1517 1510 1511 1510 1514 1517 1523 1535 1551 1562 1568 1537 1530 1516 1503 1505 1510 1511 1513 1515 1516 1518 1520 1522 1522 1524 1526 1527 1527 1527 1527 1526 1525 1525 1524 1523 1522 1522 1522 1521 1521 1520 1519
1500 1505 1514 1511 1511 1511 1518 1521 1523 1530 1543 1543 1546 1525 1513 1507 1504 1508 1510 1513 1515 1517 1519 1521 1522 1522 1523 1524 1525 1524 1525 1524 1524 1524 1523 1522 1520 1520 1519 1519 1519 1519 1518 1517
1497 1504 1506 1505 1510 1511 1508 1513 1517 1527 1534 1543 1538 1527 1509 1508 1505 1507 1511 1513 1516 1518 1520 1522 1523 1523 1523 1522 1521 1521 1521 1521 1521 1520 1519 1518 1517 1517 1517 1516 1516 1516 1516 1515
1493 1504 1517 1512 1514 1511 1509 1510 1512 1516 1524 1526 1534 1525 1512 1509 1507 1507 1510 1514 1517 1519 1520 1520 1520 1519 1519 1518 1517 1517 1518 1517 1517 1516 1516 1515 1515 1514 1514 1514 1514 1514 1513 1513
1487 1500 1500 1500 1497 1502 1507 1508 1510 1509 1517 1514 1518 1517 1515 1512 1510 1510 1511 1513 1516 1516 1516 1516 1515 1515 1514 1514 1513 1513 1513 1513 1513 1512 1511 1511 1511 1511 1512 1512 1512 1511 1511 1511
1488 1496 1499 1496 1495 1499 1498 1502 1502 1505 1506 1507 1509 1512 1510 1508 1507 1507 1510 1511 1512 1511 1511 1511 1510 1508 1508 1507 1507 1507 1507 1507 1507 1507 1507 1507 1507 1507 1508 1509 1509 1509 1509 1509
1486 1496 1498 1504 1500 1500 1498 1499 1499 1499 1501 1505 1508 1508 1503 1502 1503 1505 1504 1506 1506 1505 1505 1505 1504 1503 1503 1502 1501 1500 1500 1500 1501 1501 1502 1502 1503 1503 1504 1505 1506 1506 1507 1507
1485 1495 1502 1503 1511 1506 1504 1503 1496 1495 1495 1496 1500 1493 1496 1499 1497 1497 1498 1499 1500 1500 1500 1499 1499 1498 1498 1497 1496 1495 1493 1493 1494 1495 1496 1498 1499 1500 1500 1501 1501 1503 1503 1506
1484 1495 1505 1517 1520 1515 1489 1486 1485 1488 1488 1490 1489 1489 1489 1488 1489 1491 1492 1493 1494 1494 1495 1495 1495 1495 1494 1493 1491 1489 1487 1487 1487 1489 1491 1493 1495 1496 1496 1497 1498 1500 1501 1501
1475 1487 1512 1517 1544 1503 1488 1485 1485 1486 1481 1479 1482 1479 1483 1486 1487 1484 1485 1487 1488 1490 1490 1491 1491 1490 1488 1487 1485 1484 1483 1482 1483 1484 1487 1489 1490 1491 1492 1493 1493 1495 1497 1502
1477 1479 1492 1543 1529 1519 1482 1470 1471 1477 1480 1467 1470 1474 1476 1481 1488 1476 1480 1482 1483 1484 1485 1485 1485 1484 1483 1481 1480 1478 1477 1477 1477 1479 1481 1483 1486 1487 1489 1491 1492 1492 1494 1497
1496 1500 1494 1528 1524 1494 1470 1469 1471 1493 1473 1457 1462 1465 1470 1473 1469 1471 1474 1476 1477 1478 1478 1478 1477 1476 1476 1474 1473 1471 1471 1471 1473 1475 1477 1479 1481 1483 1485 1486 1490 1489 1492 1493
1474 1489 1506 1516 1514 1484 1457 1466 1467 1453 1454 1456 1458 1459 1461 1463 1465 1466 1468 1470 1471 1471 1471 1471 1470 1469 1468 1468 1466 1466 1465 1467 1469 1471 1472 1474 1476 1478 1480 1483 1486 1487 1488 1490
1465 1457 1468 1465 1455 1446 1445 1441 1443 1446 1449 1450 1451 1454 1457 1459 1459 1461 1460 1463 1463 1463 1463 1463 1461 1460 1460 1462 1460 1461 1461 1462 1463 1465 1467 1470 1472 1474 1477 1481 1484 1484 1486 1487
1454 1452 1457 1458 1436 1439 1438 1440 1442 1443 1443 1444 1446 1449 1451 1453 1454 1455 1456 1455 1454 1455 1455 1455 1453 1452 1452 1453 1454 1455 1456 1457 1459 1461 1463 1465 1468 1471 1475 1478 1481 1483 1485 1486
1442 1445 1448 1448 1432 1436 1435 1435 1433 1435 1437 1439 1443 1445 1446 1448 1447 1448 1448 1447 1447 1447 1447 1447 1446 1445 1445 1445 1447 1447 1449 1452 1454 1456 1459 1462 1465 1469 1472 1476 1479 1482 1483 1485
1429 1431 1437 1431 1421 1421 1420 1424 1428 1430 1432 1435 1439 1439 1439 1439 1439 1439 1438 1438 1437 1437 1437 1436 1437 1436 1437 1438 1439 1441 1443 1446 1449 1451 1454 1458 1462 1466 1470 1474 1477 1479 1481 1482